| time (UTC) | temp F | wind direction | speed knots | gust knots | rain 1hr in | rain 24hr in | rain mn in | humidity % | barometer mb |
| 20260510001542 | 76 | 0 | 0.0 | 0.0 | 0.00 | 0.01 | 0.01 | 51 | 1010.5 |
| 20260510000043 | 77 | 0 | 0.0 | 0.0 | 0.00 | 0.01 | 0.01 | 48 | 1010.6 |
| 20260509234547 | 79 | 0 | 0.0 | 0.0 | 0.00 | 0.01 | 0.01 | 44 | 1010.6 |
| 20260509233047 | 81 | 0 | 0.0 | 0.0 | 0.00 | 0.01 | 0.01 | 40 | 1010.6 |
| 20260509231543 | 83 | 0 | 0.0 | 0.9 | 0.00 | 0.01 | 0.01 | 35 | 1010.7 |
| 20260509230051 | 84 | 0 | 0.0 | 0.0 | 0.00 | 0.01 | 0.01 | 38 | 1010.5 |
| 20260509224553 | 85 | 0 | 0.0 | 0.0 | 0.00 | 0.01 | 0.01 | 35 | 1010.5 |
| 20260509223047 | 84 | 0 | 0.0 | 0.0 | 0.00 | 0.01 | 0.01 | 38 | 1010.7 |
| 20260509221541 | 84 | 0 | 0.0 | 0.9 | 0.00 | 0.01 | 0.01 | 39 | 1010.7 |
| 20260509220038 | 87 | 0 | 0.0 | 0.9 | 0.00 | 0.01 | 0.01 | 33 | 1010.7 |
| 20260509214544 | 86 | 233 | 0.0 | 0.9 | 0.00 | 0.01 | 0.01 | 36 | 1010.8 |
| 20260509213045 | 86 | 0 | 0.0 | 0.9 | 0.00 | 0.01 | 0.01 | 35 | 1010.9 |
| 20260509211545 | 86 | 193 | 0.0 | 0.9 | 0.00 | 0.01 | 0.01 | 34 | 1010.9 |
| 20260509210048 | 85 | 0 | 0.0 | 0.9 | 0.00 | 0.01 | 0.01 | 36 | 1011.1 |
| 20260509204540 | 86 | 0 | 0.0 | 0.9 | 0.00 | 0.01 | 0.01 | 33 | 1011.4 |
| 20260509203051 | 86 | 0 | 0.0 | 0.9 | 0.00 | 0.01 | 0.01 | 36 | 1011.4 |
| 20260509201544 | 87 | 0 | 0.0 | 1.7 | 0.00 | 0.01 | 0.01 | 35 | 1011.5 |
| 20260509200045 | 86 | 100 | 0.0 | 1.7 | 0.00 | 0.01 | 0.01 | 35 | 1011.4 |
| 20260509194544 | 84 | 0 | 0.0 | 0.9 | 0.00 | 0.01 | 0.01 | 35 | 1011.6 |
| 20260509193042 | 86 | 65 | 0.0 | 0.9 | 0.00 | 0.01 | 0.01 | 33 | 1011.7 |
| 20260509191539 | 86 | 175 | 0.0 | 1.7 | 0.00 | 0.01 | 0.01 | 34 | 1011.7 |
| 20260509190040 | 85 | 0 | 0.0 | 3.5 | 0.00 | 0.01 | 0.01 | 41 | 1011.8 |
| 20260509184545 | 85 | 192 | 0.0 | 0.9 | 0.00 | 0.01 | 0.01 | 43 | 1012.0 |
| 20260509183047 | 85 | 0 | 0.0 | 1.7 | 0.00 | 0.01 | 0.01 | 44 | 1011.9 |
| 20260509181605 | 85 | 0 | 0.0 | 0.9 | 0.00 | 0.01 | 0.01 | 41 | 1012.1 |
| 20260509180109 | 84 | 148 | 0.0 | 0.9 | 0.00 | 0.01 | 0.01 | 45 | 1012.2 |
| 20260509174543 | 82 | 0 | 0.0 | 2.6 | 0.00 | 0.01 | 0.01 | 46 | 1012.3 |
| 20260509173052 | 82 | 0 | 0.0 | 1.7 | 0.00 | 0.01 | 0.01 | 45 | 1012.3 |
| 20260509171552 | 83 | 0 | 0.0 | 1.7 | 0.00 | 0.01 | 0.01 | 47 | 1012.3 |
| 20260509170050 | 82 | 0 | 0.0 | 1.7 | 0.00 | 0.01 | 0.01 | 51 | 1012.5 |
| 20260509164543 | 81 | 0 | 0.0 | 3.5 | 0.00 | 0.01 | 0.01 | 53 | 1012.3 |
| 20260509163043 | 80 | 130 | 0.0 | 2.6 | 0.00 | 0.01 | 0.01 | 56 | 1012.3 |
| 20260509161559 | 79 | 223 | 0.0 | 1.7 | 0.00 | 0.01 | 0.01 | 58 | 1012.3 |
| 20260509160047 | 78 | 179 | 0.0 | 3.5 | 0.00 | 0.01 | 0.01 | 62 | 1012.3 |
| 20260509154545 | 78 | 143 | 0.0 | 2.6 | 0.00 | 0.01 | 0.01 | 64 | 1012.2 |
| 20260509153051 | 76 | 119 | 0.0 | 0.9 | 0.00 | 0.01 | 0.01 | 65 | 1012.1 |
| 20260509151551 | 74 | 0 | 0.0 | 1.7 | 0.00 | 0.01 | 0.01 | 67 | 1012.2 |
| 20260509150043 | 74 | 205 | 0.0 | 0.9 | 0.00 | 0.01 | 0.01 | 67 | 1012.2 |
| 20260509144549 | 72 | 0 | 0.0 | 1.7 | 0.00 | 0.01 | 0.01 | 70 | 1012.1 |
| 20260509143100 | 70 | 227 | 0.0 | 0.9 | 0.00 | 0.01 | 0.01 | 71 | 1012.2 |
| 20260509141558 | 68 | 187 | 0.0 | 1.7 | 0.00 | 0.01 | 0.01 | 75 | 1012.2 |
| 20260509140045 | 66 | 0 | 0.0 | 2.6 | 0.00 | 0.01 | 0.01 | 77 | 1012.1 |
| 20260509134550 | 65 | 233 | 0.0 | 1.7 | 0.00 | 0.01 | 0.01 | 79 | 1011.9 |
| 20260509133057 | 63 | 0 | 0.0 | 0.9 | 0.00 | 0.01 | 0.01 | 82 | 1011.7 |
| 20260509131543 | 61 | 0 | 0.0 | 0.9 | 0.00 | 0.01 | 0.01 | 87 | 1011.7 |
| 20260509130049 | 58 | 130 | 0.0 | 0.9 | 0.00 | 0.01 | 0.01 | 90 | 1011.6 |
| 20260509124549 | 58 | 0 | 0.0 | 0.9 | 0.00 | 0.01 | 0.01 | 94 | 1011.5 |
| 20260509123043 | 56 | 0 | 0.0 | 0.0 | 0.00 | 0.01 | 0.01 | 97 | 1011.3 |
| 20260509121551 | 55 | 0 | 0.0 | 0.0 | 0.00 | 0.01 | 0.01 | 97 | 1011.2 |
| 20260509120040 | 51 | 0 | 0.0 | 0.0 | 0.00 | 0.01 | 0.01 | 97 | 1011.0 |
| 20260509114537 | 48 | 0 | 0.0 | 0.0 | 0.00 | 0.01 | 0.01 | 97 | 1011.0 |
| 20260509113039 | 48 | 0 | 0.0 | 0.0 | 0.00 | 0.01 | 0.01 | 96 | 1010.7 |
| 20260509111543 | 48 | 0 | 0.0 | 0.0 | 0.00 | 0.01 | 0.01 | 96 | 1010.8 |
| 20260509110047 | 49 | 0 | 0.0 | 0.0 | 0.00 | 0.01 | 0.01 | 96 | 1010.8 |
| 20260509104559 | 49 | 0 | 0.0 | 0.0 | 0.00 | 0.01 | 0.01 | 97 | 1010.7 |
| 20260509103041 | 49 | 0 | 0.0 | 0.0 | 0.00 | 0.01 | 0.01 | 97 | 1010.8 |
| 20260509101544 | 49 | 0 | 0.0 | 0.0 | 0.00 | 0.01 | 0.01 | 96 | 1010.7 |
| 20260509100037 | 49 | 0 | 0.0 | 0.0 | 0.00 | 0.01 | 0.01 | 95 | 1010.7 |
| 20260509094546 | 50 | 0 | 0.0 | 0.0 | 0.00 | 0.01 | 0.01 | 96 | 1010.8 |
| 20260509093045 | 50 | 0 | 0.0 | 0.0 | 0.00 | 0.01 | 0.01 | 96 | 1011.0 |
| 20260509091544 | 50 | 0 | 0.0 | 0.0 | 0.00 | 0.01 | 0.01 | 95 | 1010.8 |
| 20260509090055 | 50 | 0 | 0.0 | 0.0 | 0.00 | 0.01 | 0.01 | 95 | 1011.1 |
| 20260509084547 | 51 | 0 | 0.0 | 0.0 | 0.01 | 0.01 | 0.01 | 96 | 1011.2 |
| 20260509083047 | 51 | 0 | 0.0 | 0.0 | 0.01 | 0.01 | 0.01 | 94 | 1011.3 |
| 20260509081551 | 51 | 0 | 0.0 | 0.0 | 0.01 | 0.01 | 0.01 | 94 | 1011.1 |
| 20260509080044 | 52 | 0 | 0.0 | 0.0 | 0.01 | 0.01 | 0.01 | 94 | 1011.1 |
| 20260509074540 | 52 | 0 | 0.0 | 0.0 | 0.00 | 0.00 | 0.00 | 94 | 1010.9 |
| 20260509073050 | 52 | 0 | 0.0 | 0.0 | 0.00 | 0.00 | 0.00 | 94 | 1011.1 |
| 20260509071547 | 52 | 0 | 0.0 | 0.0 | 0.00 | 0.00 | 0.00 | 93 | 1011.0 |
| 20260509070053 | 52 | 0 | 0.0 | 0.0 | 0.00 | 0.00 | 0.00 | 93 | 1011.1 |
| 20260509064544 | 52 | 0 | 0.0 | 0.0 | 0.00 | 0.00 | 0.00 | 92 | 1011.1 |
| 20260509063102 | 53 | 0 | 0.0 | 0.0 | 0.00 | 0.00 | 0.00 | 91 | 1011.2 |
| 20260509061613 | 54 | 0 | 0.0 | 0.0 | 0.00 | 0.00 | 0.00 | 91 | 1011.3 |
| 20260509060053 | 53 | 0 | 0.0 | 0.0 | 0.00 | 0.00 | 0.00 | 90 | 1011.4 |
| 20260509054538 | 54 | 0 | 0.0 | 0.0 | 0.00 | 0.00 | 0.00 | 89 | 1011.4 |
| 20260509053045 | 55 | 0 | 0.0 | 0.0 | 0.00 | 0.00 | 0.00 | 87 | 1011.5 |
| 20260509051543 | 56 | 0 | 0.0 | 0.0 | 0.00 | 0.00 | 0.00 | 87 | 1011.5 |
| 20260509050046 | 56 | 0 | 0.0 | 0.0 | 0.00 | 0.00 | 0.00 | 87 | 1011.5 |
| 20260509044541 | 55 | 0 | 0.0 | 0.0 | 0.00 | 0.00 | 0.00 | 87 | 1011.4 |
| 20260509043038 | 56 | 0 | 0.0 | 0.0 | 0.00 | 0.00 | 0.00 | 84 | 1011.3 |
| 20260509041543 | 57 | 0 | 0.0 | 0.0 | 0.00 | 0.00 | 0.00 | 83 | 1011.4 |
| 20260509040048 | 58 | 0 | 0.0 | 0.0 | 0.00 | 0.00 | 0.00 | 81 | 1011.4 |
| 20260509034543 | 59 | 0 | 0.0 | 0.0 | 0.00 | 0.00 | 0.00 | 79 | 1011.3 |
| 20260509033043 | 60 | 0 | 0.0 | 0.0 | 0.00 | 0.00 | 0.00 | 76 | 1011.1 |
| 20260509031542 | 62 | 0 | 0.0 | 0.9 | 0.00 | 0.00 | 0.00 | 73 | 1010.9 |
| 20260509030041 | 62 | 0 | 0.0 | 0.0 | 0.00 | 0.00 | 0.00 | 71 | 1010.6 |
| 20260509024545 | 62 | 0 | 0.0 | 3.5 | 0.00 | 0.00 | 0.00 | 70 | 1010.5 |
| 20260509023043 | 62 | 0 | 0.0 | 0.9 | 0.00 | 0.00 | 0.00 | 73 | 1010.0 |
| 20260509021544 | 61 | 0 | 0.0 | 0.0 | 0.00 | 0.00 | 0.00 | 75 | 1009.4 |
| 20260509020050 | 62 | 0 | 0.0 | 0.0 | 0.00 | 0.00 | 0.00 | 74 | 1009.0 |
| 20260509014546 | 62 | 0 | 0.0 | 0.0 | 0.00 | 0.00 | 0.00 | 72 | 1008.5 |
| 20260509013040 | 63 | 0 | 0.0 | 0.0 | 0.00 | 0.00 | 0.00 | 74 | 1008.0 |
| 20260509011545 | 64 | 0 | 0.0 | 0.0 | 0.00 | 0.00 | 0.00 | 74 | 1007.8 |
| 20260509010046 | 65 | 0 | 0.0 | 0.9 | 0.00 | 0.00 | 0.00 | 70 | 1007.8 |
| 20260509004544 | 65 | 0 | 0.0 | 0.9 | 0.00 | 0.00 | 0.00 | 69 | 1008.4 |
| 20260509003048 | 67 | 0 | 0.0 | 3.5 | 0.00 | 0.00 | 0.00 | 63 | 1009.0 |